Regional Weather Roundup
Issued by NWS

Home | Current Version | Previous Version | Graphics & Text | Print | Product List | Glossary On
Versions: 1 2 3 4 5 6 7 8 9 10 11 12 13 14 15 16 17 18 19 20 21 22 23 24 25 26 27
000
ASUS45 KTFX 230010
RWRMT
MONTANA REGIONAL WEATHER ROUNDUP
NATIONAL WEATHER SERVICE GREAT FALLS MT
500 PM MST THU FEB 22 2018

NOTE: "FAIR" INDICATES FEW OR NO CLOUDS BELOW 12000 FEET WITH NO
SIGNIFICANT WEATHER AND/OR OBSTRUCTIONS TO VISIBILITY.

MTZ001>007-043-230100-
WEST OF THE DIVIDE

CITY           SKY/WX    TMP DP  RH WIND       PRES   REMARKS
KALISPELL      FAIR      24   6  46 N15       30.10S WCI  11
MISSOULA       CLOUDY    21   9  59 N13       30.04S WCI   9
BUTTE          CLOUDY    18  10  71 NW6       29.90R WCI  10
MULLAN PASS    LGT SNOW  12   9  87 CALM      29.89R FOG
ANACONDA         N/A     16   3  57 NE7       29.95S WCI   6
DEER LODGE       N/A     16   5  62 N13       29.98R WCI   2
HAMILTON         N/A     23  10  58 MISG      30.00S
PLAINS           N/A     23   9  55 CALM      30.12S
RONAN            N/A     14   9  79 CALM      30.12R
$$

MTZ008-052>055-230100-
SOUTHWEST MONTANA

CITY           SKY/WX    TMP DP  RH WIND       PRES   REMARKS
BOZEMAN        FAIR      16   7  67 NW3       30.01R
DILLON         PTSUNNY   11  10  96 NE7       29.90S WCI   0
ENNIS          PTCLDY    14   7  73 N9        29.94R WCI   2
W YELLOWSTONE  FAIR      18  10  73 CALM      29.83S
THREE FORKS      N/A     20   7  57 CALM      30.01R
TWIN BRIDGES     N/A     19   8  62 N17       29.91S WCI   4
$$

MTZ009-010-012-014-046-048-049-054-230100-
EAST SLOPES AND CENTRAL MONTANA

CITY           SKY/WX    TMP DP  RH WIND       PRES   REMARKS
CUT BANK       FAIR      11   5  77 N5        30.14S
GREAT FALLS    FAIR       8   0  69 CALM      30.16S
HELENA         CLOUDY    16   3  56 NW12      30.08R WCI   3
AUGUSTA        FAIR       8   4  84 N10       30.10R WCI  -7
CHOTEAU          N/A     10   5  79 N7        30.16R WCI   0
CONRAD           N/A     12   6  77 W6        30.16F WCI   3
RAYNESFORD     MOCLDY    10   1  68 N3        30.13S
WHITE SULPHUR    N/A     10   5  79 CALM      29.99S
$$

MTZ011-013-016-021-045-047-050-051-230100-
NORTH CENTRAL MONTANA

CITY           SKY/WX    TMP DP  RH WIND       PRES   REMARKS
HAVRE          FAIR      -1  -7  75 SW12      30.24S WCI -18
LEWISTOWN      FAIR       3  -3  76 W10       30.11R WCI -12
N BAR RANCH    FAIR      10  -6  48 CALM      30.09R
CHINOOK          N/A     -2  -8  78 N5        30.26S
GEYSER         FAIR       8   2  77 SW3       30.12S
STANFORD       FAIR       7   2  80 NE6       30.09S WCI  -4
$$

MTZ017>020-022>027-061-062-230100-
NORTHEAST MONTANA

CITY           SKY/WX    TMP DP  RH WIND       PRES   REMARKS
GLASGOW        FAIR      -5 -13  68 W7        30.23S WCI -19
GLENDIVE       FAIR       5  -2  72 NW10      30.18S WCI -10
JORDAN           N/A      3  -4  72 W5        30.19R
MALTA          CLEAR     -2  -9  71 SW12      30.23R WCI -20
SIDNEY         FAIR       7  -2  66 NW5       30.22S
WOLF POINT     FAIR      -3 -11  68 SW10      30.24S WCI -20
PLENTYWOOD       N/A     10   0  61 W6        30.18R WCI   1
POPLAR           N/A     -2  -9  71 SW3       30.24S
$$

MTZ028>42-056>058-230100-
SOUTHCENTRAL AND SOUTHEAST MONTANA

CITY           SKY/WX    TMP DP  RH WIND       PRES   REMARKS
BAKER          FAIR       7   2  80 W5        30.12R
BILLINGS       MOCLDY    16   4  59 NE6       30.11R WCI   7
LIVINGSTON     FAIR      15   5  64 E16       30.00R WCI  -1
MILES CITY     FAIR       1  -4  79 W7        30.18R WCI -12
BIG TIMBER     CLEAR     12   1  62 NE10      30.07S WCI  -1
FORSYTH          N/A      3  -6  66 W5        30.19R
LAUREL           N/A     14   5  67 N7        30.12S WCI   4
$$

REGIONAL REPORTS...DAKOTAS

CITY           SKY/WX    TMP DP  RH WIND       PRES   REMARKS
WILLISTON      FAIR       7  -3  64 NW3       30.21S
MINOT          FAIR      13   4  67 E8        30.19S WCI   2
DICKINSON      FAIR      19   7  59 N3        30.11R
BEACH          FAIR       9   1  72 NW8       30.17S WCI  -4
CROSBY         FAIR       7   0  72 SW8       30.20S WCI  -6
TIOGA          FAIR       7   0  72 W6        30.18R WCI  -3
WATFORD CITY   FAIR       9   0  66 W5        30.19S
BISMARCK       CLOUDY    17   9  70 E5        30.21R
GRAND FORKS    MOCLDY    17  12  80 S5        30.30F
FARGO          CLOUDY    23  15  71 SE7       30.30F WCI  15
BUFFALO SD       N/A     13   4  67 CALM      30.01S
RAPID CITY     FAIR       9   0  67 NW10      30.05S WCI  -5
$$

REGIONAL REPORTS...WYOMING/IDAHO/WASHINGTON

CITY           SKY/WX    TMP DP  RH WIND       PRES   REMARKS
GILLETTE       FAIR      15   3  59 NW7       30.00R WCI   5
SHERIDAN       CLOUDY    15   3  59 W14       30.05R WCI   0
BUFFALO WY     FAIR      17   1  49 NW12      30.00R WCI   4
CODY           FAIR      15   5  64 NE9       29.98R WCI   3
YELLOWSTONE LA   N/A     11   2  67 CALM      29.84R
IDAHO FALLS    FAIR      30  11  45 S9        29.91S WCI  22
SALMON         CLOUDY    32  14  47 SE12      29.87S WCI  23
BOISE          PTSUNNY   30  17  58 N7        30.02S WCI  23
SPOKANE        PTSUNNY   26  14  60 NW8       30.14R WCI  18
$$

REGIONAL REPORTS...ALBERTA

CITY           SKY/WX    TMP DP  RH WIND       PRES   REMARKS
CALGARY        PTCLDY    14   7  73 S8        30.12F WCI   3
EDMONTON       CLEAR     25   9  50 SW7       30.13F WCI  17
FORT MCMURRAY  PTCLDY    28  12  50 W12G18    30.03S WCI  18
HIGH LEVEL     MOCLDY    28   7  40 SW5       29.91F
LETHBRIDGE     MOCLDY    10   5  79 W8        30.19S WCI  -1
LLOYDMINSTER   PTCLDY    16   9  73 SW9       30.14F WCI   4
MEDICINE HAT   CLOUDY    12   7  79 SW9       30.24S WCI   0
MILK RIVER       N/A     10   3  72 W7          N/A  WCI   0
ONEFOUR          N/A      3  -2  78 NW10        N/A  WCI -12
PEACE RIVER    MOCLDY    19   9  63 SW12      30.01F WCI   7
PINCHER CREEK  CLEAR     14   7  73 E5        30.13S
$$

REGIONAL REPORTS...SASKATCHEWAN

CITY           SKY/WX    TMP DP  RH WIND       PRES   REMARKS
CORONACH         N/A     10   0  61 NW9         N/A  WCI  -2
CYPRESS HILLS    N/A      9   5  85 NW7         N/A  WCI  -3
ESTEVAN        PTCLDY     9   0  66 SW7       30.18S WCI  -3
MOOSE JAW        N/A     12   7  79 NW8         N/A  WCI   1
PRINCE ALBERT  PTCLDY    18   5  57 W10       30.16S WCI   6
REGINA         PTCLDY    10   3  72 NW8       30.18S WCI  -1
ROCKGLEN         N/A     10   1  67 W5          N/A
SASKATOON      PTCLDY    12   5  73 SW7       30.20R WCI   2
SWIFT CURRENT  FLURRIES  12   7  79 W12       30.16R WCI  -2
VAL MARIE        N/A     -8 -15  71 NE3         N/A
$$




USA.gov is the U.S. government's official web portal to all federal, state and local government web resources and services.